Regional Weather Roundup
Issued by NWS Charleston, SC

Current Version | Previous Version | Graphics & Text | Print | Product List | Glossary On
Versions: 1 2 3 4 5 6 7 8 9 10 11 12 13 14 15 16 17 18 19 20 21 22 23 24 25 26 27 28 29 30 31 32 33 34 35 36 37 38 39 40 41 42 43 44 45 46 47 48 49 50
000
ASUS42 KCHS 291828
RWRCHS

REGIONAL WEATHER ROUNDUP
NATIONAL WEATHER SERVICE CHARLESTON SC
200 PM EDT FRI APR 29 2016

NOTE: "FAIR" INDICATES FEW OR NO CLOUDS BELOW 12,000 FEET WITH NO
SIGNIFICANT WEATHER AND/OR OBSTRUCTIONS TO VISIBILITY.

NOT ALL STATIONS ARE QUALITY CONTROLLED. USE DATA WITH CAUTION...
ESPECIALLY DEWPOINT OBSERVATIONS.

SCZ027-030-031-034>040-042>050-291900-
...SOUTHEAST SOUTH CAROLINA...

CITY           SKY/WX    TMP DP  RH WIND       PRES   REMARKS
N CHARLESTON   MOSUNNY   88  60  38 VRB5      29.94S
6HR MIN TEMP:  71; 6HR MAX TEMP:  89;

WATERFRONT PRK   N/A     79  67  66 SE8       29.93S
MOUNT PLEASANT FAIR      84  61  45 E9G18     29.96R
JOHNS ISLAND   FAIR      86  66  51 E10       29.95R
PINOPOLIS        N/A     84  68  58 VRB2      29.86F
MONCKS CORNER  FAIR      84  59  42 NW3       29.95R
SUMMERVILLE    FAIR      88  61  40 N5        29.95S
BEAUFORT MCAS  MOSUNNY   89  59  36 SE6       29.94F
6HR MIN TEMP:  72; 6HR MAX TEMP:  90;

BEAUFORT ARPT  FAIR      86  54  32 E3        29.95R
HILTON HEAD IS MOSUNNY   93  63  36 E6        29.96S HX  94
WALTERBORO     CLEAR     90  54  29 CALM      29.95S
ALLENDALE      FAIR      90  55  31 CALM      29.94S

...SOUTHERN MIDLANDS AND PEE DEE...

CITY           SKY/WX    TMP DP  RH WIND       PRES   REMARKS
GEORGETOWN     FAIR      84  66  54 E10       29.96R
KINGSTREE      FAIR      84  59  42 W7        29.96S
ORANGEBURG     SUNNY     87  55  33 CALM      29.95F
6HR MIN TEMP:  69; 6HR MAX TEMP:  88;

BARNWELL       FAIR      91  55  29 CALM      29.95F
AIKEN          FAIR      86  50  28 SW7       29.98F
MANNING        NOT AVBL
COLUMBIA       MOSUNNY   87  56  34 E6        29.94F
6HR MIN TEMP:  70; 6HR MAX TEMP:  88;

SUMTER         MOSUNNY   85  60  42 VRB5      29.94S
6HR MIN TEMP:  70; 6HR MAX TEMP:  85;

FLORENCE       MOSUNNY   83  62  49 SW5       29.96S
6HR MIN TEMP:  67; 6HR MAX TEMP:  84;

MYRTLE BEACH   MOSUNNY   84  63  48 SE12      29.96F
N MYRTLE BEACH MOSUNNY   75  67  76 SE13G21   29.97R
6HR MIN TEMP:  71; 6HR MAX TEMP:  85;


$$

GAZ063-065-086>088-099>101-113>116-118-119-134>141-150-291900-
...SOUTHEAST GEORGIA...

CITY           SKY/WX    TMP DP  RH WIND       PRES   REMARKS
SAVANNAH ARPT  MOSUNNY   89  59  36 S6        29.94F
6HR MIN TEMP:  71; 6HR MAX TEMP:  90;

HUNTER AAF     SUNNY     90  63  39 VRB3      29.91F HX  90
6HR MIN TEMP:  71; 6HR MAX TEMP:  90;

FORT STEWART   MOSUNNY   89  58  35 CALM      29.92F
6HR MIN TEMP:  71; 6HR MAX TEMP:  89;

STATESBORO     SUNNY     92  62  36 NW6       29.95S HX  93
SYLVANIA       CLOUDY    90  60  36 W3        29.95F
CLAXTON        FAIR      90  61  37 SW8       29.95S HX  90

...CSRA...CENTRAL AND FAR SOUTHEAST GEORGIA...

CITY           SKY/WX    TMP DP  RH WIND       PRES   REMARKS
THOMSON        SUNNY     87  62  42 N3        30.01S
AUGUSTA-BUSH   SUNNY     87  55  33 CALM      29.94F
6HR MIN TEMP:  66; 6HR MAX TEMP:  88;

AUGUSTA-DANIEL SUNNY     89  55  31 VRB7      29.96F
SWAINSBORO     FAIR      86  52  30 NW6       29.96F
VIDALIA        SUNNY     88  59  37 N6        29.96F HAZE
EASTMAN        FAIR      89  59  36 CALM      29.98F
HAZLEHURST     FAIR      90  57  33 CALM      29.95F
ALMA           SUNNY     87  60  40 VRB6      29.95F
6HR MIN TEMP:  70; 6HR MAX TEMP:  88;

WAYCROSS       SUNNY     87  64  46 S5        29.95F
JESUP          FAIR      91  63  38 N6        29.95F HX  92
BAXLEY         FAIR      90  61  37 S3        29.95F
BRUNSWICK      PTSUNNY   91  63  38 CALM      29.95F HX  92
SAINT SIMONS   SUNNY     81  73  76 S10       29.96S
6HR MIN TEMP:  70; 6HR MAX TEMP:  84;


$$

SCZ027-028-034-036>038-045-046-048>050-GAZ119-141-291900-
...LAKE AND SUPPLEMENTAL COASTAL OBSERVATIONS...

STATION/POSITION TIME  TEMP    WIND        PRES    WAVE   SWELL
                       AIR SEA DIR/SP/G            HT/PER HT/PER/DIR
                 (UTC) (F)     (DEG/KT/KT) (MB)    (FT/S) (FT/S/D)
WINYAH BAY       1700   75     100/  9     1014.0S
LAKE MURRAY      1700   83     180/  4/  6 1014.6S
ACE BASIN NERRS  1700   88     340/  1     1014.0F
FORT PULASKI     1800   80 72   80/ 10/ 11 1014.3F
SAPELO ISLAND    1800   88     190/  5     1014.0S

$$

ANZ835-935-AMZ111-154-330-350-352-354-370-450-454-472-291900-
...C-MAN AND BUOY OBSERVATIONS...

STATION/POSITION TIME  TEMP    WIND        PRES    WAVE   SWELL
                       AIR SEA DIR/SP/G            HT/PER HT/PER/DIR
                 (UTC) (F)     (DEG/KT/KT) (MB)    (FT/S) (FT/S/D)
BUOY 41004       1750   72 74   30/  8/  8 1013.8F   2/ 4   2/ 5
BUOY 41008       NOT AVBL
FOLLY BEACH CMAN 1800   78     160/  5/  5 1014.5R
CAPERS NEARSHORE 1808   76 71  120/  8/ 10 1014.0F
FRIPP NEARSHORE  1808   76 71  170/  4/  6 1013.7R


STATION/POSITION TIME  TEMP    WIND        PRES    WAVE   SWELL
                       AIR SEA DIR/SP/G            HT/PER HT/PER/DIR
                 (UTC) (F)     (DEG/KT/KT) (MB)    (FT/S) (FT/S/D)
5E ST. MARYS GA  1721      73                N/A     1/11
FRYING PAN BUOY  1800   69 70   40/ 16/ 17 1013.9F
BUOY 41025       1750   65 74  350/ 16/ 17 1013.4F   3/ 9   2/ 70/ 9
CAPE LOOKOUT NC  1800   69     360/  6/  9 1014.1F
BUOY 41002       1750   71 71  200/ 14/ 16 1013.8F   3/ 4   2/ 60/11
BUOY 41010       1720   76 77  210/ 10/ 10 1015.8F
ST AUGUSTINE FL  1800   72 72  100/  5/  5 1015.5F


$$




USA.gov is the U.S. government's official web portal to all federal, state and local government web resources and services.